TimeCST,TemperatureF,Dew PointF,Humidity,Sea Level PressureIn,VisibilityMPH,Wind Direction,Wind SpeedMPH,Gust SpeedMPH,PrecipitationIn,Events,Conditions,WindDirDegrees,DateUTC
12:15 AM,48.2,41.0,76,30.10,10.0,South,9.2,-,N/A,,Clear,180,2012-11-09 06:15:00
12:35 AM,46.4,41.0,81,30.10,10.0,South,10.4,-,N/A,,Clear,180,2012-11-09 06:35:00
12:55 AM,46.4,41.0,81,30.10,10.0,South,8.1,-,N/A,,Clear,180,2012-11-09 06:55:00
1:15 AM,46.4,41.0,81,30.11,10.0,South,9.2,-,N/A,,Clear,190,2012-11-09 07:15:00
1:35 AM,46.4,41.0,81,30.11,10.0,South,8.1,-,N/A,,Clear,190,2012-11-09 07:35:00
1:55 AM,46.4,41.0,81,30.10,10.0,South,5.8,-,N/A,,Clear,180,2012-11-09 07:55:00
2:15 AM,46.4,41.0,81,30.10,10.0,South,8.1,-,N/A,,Clear,180,2012-11-09 08:15:00
2:35 AM,46.4,41.0,81,30.09,10.0,South,11.5,-,N/A,,Clear,170,2012-11-09 08:35:00
2:55 AM,46.4,41.0,81,30.09,10.0,South,6.9,-,N/A,,Clear,170,2012-11-09 08:55:00
3:15 AM,48.2,41.0,76,30.09,10.0,South,9.2,-,N/A,,Clear,170,2012-11-09 09:15:00
3:35 AM,46.4,41.0,81,30.09,10.0,South,5.8,-,N/A,,Clear,180,2012-11-09 09:35:00
3:55 AM,46.4,42.8,87,30.09,10.0,South,6.9,-,N/A,,Clear,170,2012-11-09 09:55:00
4:15 AM,46.4,42.8,87,30.10,10.0,South,6.9,-,N/A,,Clear,170,2012-11-09 10:15:00
4:35 AM,46.4,42.8,87,30.10,10.0,South,8.1,-,N/A,,Clear,170,2012-11-09 10:35:00
4:55 AM,48.2,42.8,82,30.10,10.0,South,9.2,-,N/A,,Clear,180,2012-11-09 10:55:00
5:15 AM,48.2,41.0,76,30.09,10.0,South,9.2,-,N/A,,Clear,180,2012-11-09 11:15:00
5:35 AM,48.2,41.0,76,30.09,10.0,South,8.1,-,N/A,,Scattered Clouds,180,2012-11-09 11:35:00
5:55 AM,48.2,41.0,76,30.09,10.0,South,9.2,-,N/A,,Scattered Clouds,180,2012-11-09 11:55:00
6:15 AM,48.2,41.0,76,30.09,10.0,South,9.2,-,N/A,,Clear,170,2012-11-09 12:15:00
6:35 AM,48.2,41.0,76,30.09,10.0,South,10.4,17.3,N/A,,Clear,170,2012-11-09 12:35:00
6:55 AM,48.2,41.0,76,30.10,10.0,South,10.4,-,N/A,,Mostly Cloudy,170,2012-11-09 12:55:00
7:15 AM,50.0,42.8,76,30.10,10.0,South,10.4,18.4,N/A,,Overcast,170,2012-11-09 13:15:00
7:35 AM,50.0,42.8,76,30.10,10.0,South,10.4,-,N/A,,Mostly Cloudy,170,2012-11-09 13:35:00
7:55 AM,50.0,42.8,76,30.10,10.0,South,10.4,-,N/A,,Scattered Clouds,180,2012-11-09 13:55:00
8:15 AM,53.6,42.8,67,30.09,10.0,South,10.4,17.3,N/A,,Mostly Cloudy,170,2012-11-09 14:15:00
8:35 AM,53.6,41.0,62,30.10,10.0,South,12.7,-,N/A,,Mostly Cloudy,190,2012-11-09 14:35:00
8:55 AM,55.4,41.0,58,30.08,10.0,South,16.1,24.2,N/A,,Mostly Cloudy,180,2012-11-09 14:55:00
9:15 AM,55.4,41.0,58,30.09,10.0,South,11.5,20.7,N/A,,Scattered Clouds,190,2012-11-09 15:15:00
9:35 AM,57.2,41.0,55,30.09,10.0,South,10.4,18.4,N/A,,Clear,180,2012-11-09 15:35:00
9:55 AM,57.2,42.8,59,30.09,10.0,South,12.7,-,N/A,,Clear,190,2012-11-09 15:55:00
10:15 AM,59.0,42.8,55,30.08,10.0,South,13.8,-,N/A,,Clear,170,2012-11-09 16:15:00
10:35 AM,60.8,44.6,55,30.07,10.0,South,13.8,18.4,N/A,,Clear,170,2012-11-09 16:35:00
10:55 AM,60.8,44.6,55,30.06,10.0,South,13.8,19.6,N/A,,Clear,180,2012-11-09 16:55:00
11:15 AM,62.6,46.4,55,30.05,10.0,South,12.7,18.4,N/A,,Clear,170,2012-11-09 17:15:00
11:35 AM,64.4,46.4,52,30.04,10.0,South,11.5,19.6,N/A,,Clear,180,2012-11-09 17:35:00
11:55 AM,64.4,46.4,52,30.03,10.0,South,15.0,20.7,N/A,,Clear,190,2012-11-09 17:55:00
12:15 PM,64.4,48.2,56,30.01,10.0,South,15.0,19.6,N/A,,Clear,170,2012-11-09 18:15:00
12:35 PM,66.2,48.2,52,30.01,10.0,South,11.5,24.2,N/A,,Clear,170,2012-11-09 18:35:00
12:55 PM,66.2,48.2,52,30.00,10.0,South,13.8,20.7,N/A,,Scattered Clouds,170,2012-11-09 18:55:00
1:15 PM,66.2,50.0,56,29.99,10.0,South,9.2,18.4,N/A,,Scattered Clouds,170,2012-11-09 19:15:00
1:35 PM,68.0,50.0,52,29.99,10.0,South,17.3,25.3,N/A,,Scattered Clouds,180,2012-11-09 19:35:00
1:55 PM,68.0,48.2,49,29.98,10.0,South,16.1,24.2,N/A,,Clear,170,2012-11-09 19:55:00
2:15 PM,68.0,50.0,52,29.98,10.0,South,17.3,21.9,N/A,,Clear,170,2012-11-09 20:15:00
2:35 PM,69.8,51.8,53,29.98,10.0,South,12.7,23.0,N/A,,Clear,170,2012-11-09 20:35:00
2:55 PM,68.0,51.8,56,29.98,10.0,South,12.7,23.0,N/A,,Clear,180,2012-11-09 20:55:00
3:15 PM,69.8,53.6,56,29.98,10.0,South,12.7,19.6,N/A,,Clear,170,2012-11-09 21:15:00
3:35 PM,69.8,53.6,56,29.97,10.0,South,13.8,26.5,N/A,,Clear,180,2012-11-09 21:35:00
3:55 PM,68.0,55.4,64,29.97,10.0,South,13.8,21.9,N/A,,Clear,180,2012-11-09 21:55:00
4:15 PM,68.0,57.2,68,29.97,10.0,South,11.5,21.9,N/A,,Clear,170,2012-11-09 22:15:00
4:35 PM,66.2,57.2,73,29.97,10.0,South,11.5,21.9,N/A,,Clear,170,2012-11-09 22:35:00
4:55 PM,66.2,57.2,73,29.97,10.0,South,16.1,23.0,N/A,,Clear,170,2012-11-09 22:55:00
5:15 PM,66.2,57.2,73,29.98,10.0,South,15.0,-,N/A,,Clear,170,2012-11-09 23:15:00
5:35 PM,66.2,57.2,73,29.98,10.0,South,12.7,19.6,N/A,,Clear,170,2012-11-09 23:35:00
5:55 PM,66.2,59.0,78,29.98,10.0,South,16.1,21.9,N/A,,Clear,170,2012-11-09 23:55:00
6:35 PM,64.4,59.0,83,29.99,10.0,South,15.0,19.6,N/A,,Clear,180,2012-11-10 00:35:00
6:55 PM,64.4,59.0,83,29.99,10.0,South,11.5,-,N/A,,Clear,180,2012-11-10 00:55:00
7:35 PM,64.4,59.0,83,30.00,10.0,South,10.4,16.1,N/A,,Clear,180,2012-11-10 01:35:00
7:55 PM,62.6,59.0,88,30.01,10.0,South,9.2,-,N/A,,Clear,180,2012-11-10 01:55:00
8:15 PM,62.6,57.2,82,30.01,10.0,South,11.5,18.4,N/A,,Clear,180,2012-11-10 02:15:00
8:35 PM,62.6,57.2,82,30.01,10.0,South,13.8,18.4,N/A,,Clear,190,2012-11-10 02:35:00
8:55 PM,62.6,57.2,82,30.01,10.0,South,15.0,19.6,N/A,,Clear,190,2012-11-10 02:55:00
9:15 PM,62.6,57.2,82,30.02,10.0,South,12.7,23.0,N/A,,Clear,190,2012-11-10 03:15:00
9:35 PM,62.6,55.4,77,30.02,10.0,South,15.0,24.2,N/A,,Clear,190,2012-11-10 03:35:00
9:55 PM,62.6,55.4,77,30.02,10.0,South,17.3,23.0,N/A,,Clear,190,2012-11-10 03:55:00
10:15 PM,62.6,55.4,77,30.02,10.0,SSW,16.1,20.7,N/A,,Clear,200,2012-11-10 04:15:00
10:35 PM,60.8,53.6,77,30.02,10.0,South,13.8,21.9,N/A,,Clear,190,2012-11-10 04:35:00
10:55 PM,60.8,51.8,72,30.03,10.0,South,13.8,20.7,N/A,,Clear,190,2012-11-10 04:55:00
11:15 PM,60.8,50.0,68,30.03,10.0,South,13.8,19.6,N/A,,Clear,190,2012-11-10 05:15:00
11:35 PM,60.8,48.2,63,30.03,10.0,SSW,12.7,20.7,N/A,,Clear,200,2012-11-10 05:35:00